Overview Statistics Trail Chart Weather Telemetry Raw packets
 

This is the latest recevied weather packets stored in our database for station/object IR9AK-10. If no packets are shown the sender has not sent any weather packets the latest 10 day(s).

<< 40 41 42 43 44 45 46 >>
Time Temp. Humidity Pressure Rain* Wind** Luminosity Snow
1787978490 41.11° C 29% 1060.7 hPa - - - -
1787977892 40.56° C 30% 1060.6 hPa - - - -
1787977291 40.56° C 30% 1060.6 hPa - - - -
1787976693 40.56° C 33% 1060.6 hPa - - - -
1787976094 40.56° C 31% 1060.6 hPa - - - -
1787975495 40.56° C 32% 1060.5 hPa - - - -
1787974896 40.56° C 32% 1060.5 hPa - - - -
1787974296 40.56° C 33% 1060.5 hPa - - - -
1787973696 41.11° C 35% 1060.5 hPa - - - -
1787973096 41.11° C 34% 1060.8 hPa - - - -
1787972497 41.11° C 33% 1060.8 hPa - - - -
1787971897 41.11° C 33% 1060.9 hPa - - - -
1787971299 41.11° C 33% 1060.7 hPa - - - -
1787970700 41.11° C 34% 1060.5 hPa - - - -
1787970101 41.67° C 34% 1060.2 hPa - - - -
1787969502 41.67° C 33% 1060.3 hPa - - - -
1787968903 41.67° C 34% 1060.3 hPa - - - -
1787968304 41.67° C 35% 1060.2 hPa - - - -
1787967705 41.67° C 34% 1060 hPa - - - -
1787967107 41.67° C 33% 1059.9 hPa - - - -
1787966508 41.67° C 35% 1059.5 hPa - - - -
1787965908 41.67° C 34% 1059.4 hPa - - - -
1787965309 41.67° C 36% 1059.3 hPa - - - -
1787964711 41.67° C 34% 1059.7 hPa - - - -
1787964111 41.67° C 34% 1059.7 hPa - - - -

* Rain since midnight (hover to see other rain measurements)
** Current wind speed in m/s (hover to see current wind gust speed)